Terminal Aerodrome Forecast
Issued by NWS Sterling, VA

Current Version | Previous Version | Text Only | Print | Product List | Glossary Off
Versions: 1 2 3 4 5 6 7 8 9 10 11 12 13 14 15 16 17 18 19 20 21 22 23 24 25

000
FTUS41 KLWX 310200 AAA
TAFDCA
TAF AMD
KDCA 310233Z 3103/3124 15005KT P6SM BKN120
     FM311000 20006KT 5SM BR BKN130
     FM311200 20007KT P6SM BKN130
     FM311800 20010KT P6SM -SHRA VCTS BKN050CB
     FM312200 21009KT P6SM BKN050=

USA.gov is the U.S. government's official web portal to all federal, state and local government web resources and services.